sat.trackr.live / text

‹ back to catalog

UNKNOWN

NORAD 87029

UNKNOWN UNKNOWN UNKNOWN

§ Identity

Operator
Country
Launch date
Launch site
Launch vehicle
Mass (kg)
RCS (m²)

External: N2YO · Heavens-Above

§ Orbital elements

Epoch: 2026-05-19T08:59:35.693952Z

Period
102.50 min
Inclination
98.7363°
Eccentricity
0.0082723
Mean motion
14.04845848 rev/d
Perigee alt
817.0 km
Apogee alt
937.1 km
Semi-major
7,255.2 km
B*
5.9852e-4
RAAN
173.9542°
Arg perigee
166.7972°
Mean anomaly
193.5388°
Rev number
61,513

§ Raw data

UNKNOWN1 87029U          26139.37471868  .00000949  00000+0  59852-3 0  99942 87029  98.7363 173.9542 0082723 166.7972 193.5388 14.04845848615134

JSON: /api/v1/satellites/87029 · /tle

For live sub-satellite position, see the globe view (requires WebGL).

§ Visibility from observer

Set your observer location to see the next 7 days of passes ≥ 10°. The values pass through the URL so the page stays shareable.

No JS? Fill the form by hand. The geolocation button needs JavaScript.